Regional Weather Roundup
Issued by NWS

Home | Current Version | Previous Version | Text Only | Print | Product List | Glossary On
Versions: 1 2 3 4 5 6 7 8 9 10 11 12 13 14 15 16 17 18 19 20 21 22 23 24 25 26 27 28 29 30 31 32 33 34 35 36 37 38 39 40 41 42 43 44 45 46 47 48 49 50
000
ASUS46 KPQR 302210
RWROR

OREGON REGIONAL WEATHER ROUNDUP
NATIONAL WEATHER SERVICE PORTLAND OR
300 PM PDT TUE JUN 30 2015

NOTE: "FAIR" INDICATES FEW OR NO CLOUDS BELOW 12,000 FEET WITH
NO SIGNIFICANT WEATHER AND/OR OBSTRUCTIONS TO VISIBILITY.

ORZ001>013-302300-
NORTHWEST OREGON


CITY           SKY/WX    TMP DP  RH WIND       PRES   REMARKS
ASTORIA        SUNNY     70  59  68 NW14      30.12S
NEWPORT        CLOUDY    61  55  82 NW24      30.11F
PORTLAND       MOSUNNY   88  61  40 W14       30.01F
VANCOUVER WA   SUNNY     88  59  37 W15       30.01F
SCAPPOOSE      SUNNY     89  58  34 N15       30.01F
HILLSBORO      SUNNY     91  58  32 NW8       30.00F HX  90
AURORA         SUNNY     90  54  29 N14       30.02F
MCMINNVILLE    SUNNY     92  54  27 NE8       30.01F HX  90
SALEM          SUNNY     92  53  26 N13G22    30.00F
CORVALLIS      SUNNY     93  55  27 N10G17    30.02F HX  91
EUGENE         SUNNY     94  53  25 N20G26    30.00F HX  91
$$

ORZ021-028-302300-
SOUTHWEST OREGON


CITY           SKY/WX    TMP DP  RH WIND       PRES   REMARKS
NORTH BEND     CLOUDY    63  57  82 N25G31    30.05S
BROOKINGS      SUNNY     67  60  78 S8        29.95F
ROSEBURG       SUNNY     94  54  25 N13G21    29.97F HX  92
SEXTON SUMMIT  SUNNY     83  51  33 VRB5      30.13F
MEDFORD        SUNNY     98  53  22 W8        29.92F HX  96
$$

ORZ014>016-041-302300-
COLUMBIA GORGE


CITY           SKY/WX    TMP DP  RH WIND       PRES   REMARKS
TROUTDALE      SUNNY     87  59  38 SW10      30.00F
THE DALLES     SUNNY     97  56  25 NW15      29.90F HX  95
$$

ORZ029>031-041-044-049-050-061>064-502-503-505>511-302300-
EASTERN OREGON


CITY           SKY/WX    TMP DP  RH WIND       PRES   REMARKS
REDMOND        SUNNY     91  41  17 MISG      30.07F
BEND             N/A    N/A N/A N/A MISG        N/A
PRINEVILLE     SUNNY     91  41  17 W12G20    30.07F
KLAMATH FALLS  SUNNY     92  31  11 CALM      30.09F
LAKEVIEW       SUNNY     95  39  14 S14       30.11F HX  91
HERMISTON      SUNNY     98  52  21 VRB3      29.92F HX  95
PENDLETON      SUNNY     96  50  20 W7        29.96F HX  93
JOHN DAY       SUNNY     94  44  17 W8        30.07F HX  90
MEACHAM        SUNNY     86  50  28 VRB5      30.12F
LA GRANDE      SUNNY     95  50  21 NW15      30.01F HX  92
BAKER CITY     SUNNY     93  54  26 NW14      30.04F HX  91
BURNS          SUNNY     96  31  10 CALM      30.07F HX  90
ROME             N/A     98  39  13 SE8       30.04F HX  93
ONTARIO        SUNNY    103  49  16 VRB7      29.90F HX  99
$$



USA.gov is the U.S. government's official web portal to all federal, state and local government web resources and services.